This demonstration page uses our WeatherBlox Daily Observations layout. Learn more.

Left ArrowRight Arrow

Hourly Observations for April 15, 2020

Temp ( °F °C ) Dew Point ( °F °C ) Humidity (%) Winds ( mph kmh ) Pressure ( in mb ) Visibility ( mi km ) Precip ( " mm )
12:15 am 00:15 Cloudy 36 2 36 2 100 100 NNW 6 9 30.15 1021 5 8.0467 0.02 0.508
12:35 am 00:35 Cloudy 36 2 36 2 100 100 N 5 7 30.14 1021 7 11.26538 0.02 0.508
12:55 am 00:55 Cloudy 36 2 36 2 100 100 NNW 3 6 30.13 1020 5 8.0467 0.04 1.016
1:15 am 01:15 Cloudy 36 2 36 2 100 100 Calm 30.14 1021 7 11.26538 0.01 0.254
1:35 am 01:35 Cloudy 36 2 36 2 100 100 NW 3 6 30.14 1021 7 11.26538 0.03 0.762
1:55 am 01:55 Cloudy 36 2 36 2 100 100 SSW 3 6 30.12 1020 10 16.0934 0.03 0.762
2:15 am 02:15 Cloudy 36 2 36 2 100 100 Calm 30.11 1020 10 16.0934 0 0
2:35 am 02:35 Cloudy 36 2 36 2 100 100 Calm 30.12 1020 10 16.0934 0 0
2:55 am 02:55 Cloudy 36 2 36 2 100 100 Calm 30.11 1020 10 16.0934 0 0
3:15 am 03:15 Cloudy 36 2 36 2 100 100 S 5 7 30.12 1020 10 16.0934 0 0
3:35 am 03:35 Cloudy 36 2 36 2 100 100 Calm 30.11 1020 10 16.0934 0 0
3:55 am 03:55 Cloudy 36 2 36 2 100 100 Calm 30.11 1020 10 16.0934 0 0
4:15 am 04:15 Cloudy 36 2 36 2 100 100 NW 6 9 30.11 1020 10 16.0934 0 0
4:35 am 04:35 Cloudy 37 3 36 2 93 93 NW 8 13 30.11 1020 10 16.0934 0 0
4:55 am 04:55 Cloudy 37 3 36 2 93 93 NNW 14 22 30.09 1019 10 16.0934 0 0
5:15 am 05:15 Cloudy 37 3 34 1 87 87 NW 8 13 30.11 1020 10 16.0934 0 0
5:35 am 05:35 Cloudy 37 3 34 1 87 87 NW 6 9 30.1 1019 10 16.0934 0 0
5:55 am 05:55 Cloudy 37 3 36 2 93 93 WNW 5 7 30.11 1020 10 16.0934 0 0
6:15 am 06:15 Mostly Cloudy 37 3 34 1 87 87 NW 7 11 30.1 1019 10 16.0934 0 0
6:35 am 06:35 Partly Cloudy 37 3 34 1 87 87 NNW 6 9 30.1 1019 10 16.0934 0 0
6:55 am 06:55 Sunny 37 3 34 1 87 87 NNW 6 9 30.1 1019 10 16.0934 0 0
7:15 am 07:15 Sunny 37 3 32 0 81 81 NNW 7 11 30.11 1020 10 16.0934 0 0
7:35 am 07:35 Sunny 36 2 32 0 87 87 NNW 7 11 30.11 1020 10 16.0934 0 0
7:55 am 07:55 Sunny 37 3 32 0 81 81 NNW 6 9 30.12 1020 10 16.0934 0 0
8:15 am 08:15 Sunny 37 3 32 0 81 81 NNW 6 9 30.12 1020 10 16.0934 0 0
8:35 am 08:35 Sunny 39 4 32 0 75 75 NNW 6 9 30.12 1020 10 16.0934 0 0
8:55 am 08:55 Sunny 39 4 32 0 75 75 NNW 7 11 30.12 1020 10 16.0934 0 0
9:15 am 09:15 Sunny 41 5 30 -1 66 66 NNW 7 11 30.11 1020 10 16.0934 0 0
9:35 am 09:35 Sunny 41 5 28 -2 61 61 N 15 24 30.11 1020 10 16.0934 0 0
9:55 am 09:55 Sunny 41 5 25 -4 53 53 NNE 10 17 30.11 1020 10 16.0934 0 0
10:15 am 10:15 Mostly Cloudy 43 6 27 -3 53 53 NW 13 20 30.1 1019 10 16.0934 0 0
10:35 am 10:35 Mostly Cloudy 43 6 27 -3 53 53 NNW 14 22 30.1 1019 10 16.0934 0 0
10:55 am 10:55 Partly Cloudy 43 6 27 -3 53 53 NNW 14 22 30.1 1019 10 16.0934 0 0
11:15 am 11:15 Partly Cloudy 45 7 27 -3 49 49 NW 9 15 30.09 1019 10 16.0934 0 0
11:35 am 11:35 Partly Cloudy 43 6 25 -4 49 49 NNE 6 9 30.09 1019 10 16.0934 0 0
11:55 am 11:55 Partly Cloudy 45 7 27 -3 49 49 NNW 16 26 30.08 1019 10 16.0934 0 0
12:15 pm 12:15 Sunny 45 7 27 -3 49 49 WNW 9 15 30.08 1019 10 16.0934 0 0
12:35 pm 12:35 Partly Cloudy 46 8 27 -3 46 46 N 10 17 30.07 1018 10 16.0934 0 0
12:55 pm 12:55 Partly Cloudy 46 8 28 -2 50 50 N 8 13 30.07 1018 10 16.0934 0 0
1:15 pm 13:15 Mostly Cloudy 46 8 27 -3 46 46 NNW 8 13 30.06 1018 10 16.0934 0 0
1:35 pm 13:35 Mostly Cloudy 46 8 28 -2 50 50 NW 9 15 30.05 1018 10 16.0934 0 0
1:55 pm 13:55 Partly Cloudy 48 9 27 -3 43 43 NW 9 15 30.05 1018 10 16.0934 0 0
2:15 pm 14:15 Partly Cloudy 50 10 28 -2 43 43 WNW 6 9 30.04 1017 10 16.0934 0 0
2:35 pm 14:35 Mostly Cloudy 46 8 25 -4 43 43 N 7 11 30.03 1017 10 16.0934 0 0
2:55 pm 14:55 Mostly Cloudy 50 10 27 -3 40 40 WNW 5 7 30.02 1016 10 16.0934 0 0
3:15 pm 15:15 Partly Cloudy 50 10 28 -2 43 43 NW 12 19 30.01 1016 10 16.0934 0 0
3:35 pm 15:35 Sunny 52 11 28 -2 41 41 NW 6 9 30 1016 10 16.0934 0 0
3:55 pm 15:55 Partly Cloudy 50 10 25 -4 37 37 N 3 6 29.99 1015 10 16.0934 0 0
4:15 pm 16:15 Mostly Cloudy 52 11 27 -3 38 38 Calm 29.98 1015 10 16.0934 0 0
4:35 pm 16:35 Partly Cloudy 52 11 25 -4 35 35 W 3 6 29.97 1015 10 16.0934 0 0
4:55 pm 16:55 Sunny 54 12 27 -3 35 35 W 8 13 29.96 1015 10 16.0934 0 0
5:15 pm 17:15 Sunny 52 11 25 -4 35 35 W 7 11 29.97 1015 10 16.0934 0 0
5:35 pm 17:35 Sunny 54 12 25 -4 33 33 W 12 19 29.96 1015 10 16.0934 0 0
5:55 pm 17:55 Sunny 54 12 25 -4 33 33 SW 10 17 29.96 1015 10 16.0934 0 0
6:15 pm 18:15 Sunny 52 11 25 -4 35 35 WSW 7 11 29.97 1015 10 16.0934 0 0
6:35 pm 18:35 Sunny 52 11 23 -5 32 32 WSW 6 9 29.97 1015 10 16.0934 0 0
6:55 pm 18:55 Sunny 52 11 25 -4 35 35 SSW 7 11 29.96 1015 10 16.0934 0 0
7:15 pm 19:15 Sunny 52 11 25 -4 35 35 WSW 7 11 29.97 1015 10 16.0934 0 0
7:35 pm 19:35 Sunny 50 10 27 -3 40 40 S 6 9 29.98 1015 10 16.0934 0 0
7:55 pm 19:55 Clear 48 9 27 -3 43 43 S 6 9 29.99 1015 10 16.0934 0 0
8:15 pm 20:15 Clear 48 9 27 -3 43 43 S 6 9 30 1016 10 16.0934 0 0
8:35 pm 20:35 Clear 46 8 27 -3 46 46 S 6 9 30.01 1016 10 16.0934 0 0
8:55 pm 20:55 Clear 46 8 27 -3 46 46 S 6 9 30.01 1016 10 16.0934 0 0
9:15 pm 21:15 Clear 46 8 28 -2 50 50 S 5 7 30.02 1017 10 16.0934 0 0
9:35 pm 21:35 Clear 45 7 28 -2 53 53 SSW 5 7 30.02 1017 10 16.0934 0 0
9:55 pm 21:55 Clear 45 7 28 -2 53 53 SSW 5 7 30.03 1017 10 16.0934 0 0
10:15 pm 22:15 Clear 43 6 28 -2 57 57 SW 6 9 30.03 1017 10 16.0934 0 0
10:35 pm 22:35 Clear 43 6 28 -2 57 57 SSW 5 7 30.03 1017 10 16.0934 0 0
10:55 pm 22:55 Clear 43 6 28 -2 57 57 SSW 5 7 30.03 1017 10 16.0934 0 0
11:15 pm 23:15 Clear 43 6 28 -2 57 57 SSW 6 9 30.03 1017 10 16.0934 0 0
11:35 pm 23:35 Clear 43 6 28 -2 57 57 SSW 6 9 30.03 1017 10 16.0934 0 0
11:55 pm 23:55 Clear 41 5 30 -1 66 66 SW 6 9 30.03 1017 10 16.0934 0 0

Powered by AerisWeather